Wind_Speed
30 30 30 31 31 31 31 31 31 32 32 32 32 31 31 32 33 33 33 31 31 30 28 27 27 26 25 24 23 23 22 21 19 18 19 20 20 20 19 18 17 16 15
30 30 29 28 27 27 27 27 28 29 30 31 31 31 30 30 31 31 33 33 32 31 30 28 28 28 28 27 26 26 25 24 22 21 19 18 19 19 19 20 19 19 18
30 29 28 27 26 25 26 26 27 29 29 30 31 32 32 31 31 31 31 30 31 30 29 30 29 28 28 29 28 28 28 27 25 24 22 21 20 20 20 20 20 20 19
28 27 26 25 24 24 24 24 25 26 28 29 30 32 33 32 32 32 31 30 31 29 28 28 28 28 29 28 30 30 30 30 28 27 26 25 24 23 23 22 21 21 20
26 25 24 23 22 22 22 22 23 24 26 27 29 30 32 33 33 33 31 30 31 30 29 28 28 29 29 29 29 30 30 32 31 30 30 29 28 28 27 26 25 24 23
25 23 22 21 20 20 21 21 22 24 25 27 28 30 31 32 33 33 32 32 31 30 30 30 29 30 30 30 29 30 30 31 33 34 33 32 32 31 31 30 29 28 27
24 22 21 19 19 20 20 21 22 23 25 27 27 29 30 31 32 32 32 32 31 31 31 31 30 29 29 30 30 30 31 32 34 35 36 35 35 35 34 34 33 32 31
22 21 20 20 20 20 21 22 23 24 25 27 28 28 28 30 31 31 31 32 32 31 31 32 31 30 29 30 30 31 32 32 33 35 36 37 37 37 37 36 36 36 35
22 22 21 21 21 22 23 24 24 24 25 27 28 28 28 28 29 30 30 30 31 31 30 31 31 30 29 30 30 31 31 32 33 34 35 36 37 39 39 39 39 38 38
23 23 23 24 24 24 25 25 25 25 25 26 28 28 28 28 28 27 28 29 30 30 30 31 31 31 30 29 30 30 31 32 33 34 35 36 36 37 39 40 40 40 40
25 25 26 26 26 26 26 27 27 27 26 27 27 28 28 28 27 25 24 27 29 30 30 30 31 31 29 28 28 28 30 32 32 33 34 35 36 37 37 39 40 40 40
28 28 29 30 30 30 29 28 29 28 28 28 28 27 27 27 26 25 23 24 27 29 30 29 30 30 29 27 27 27 28 29 30 31 32 33 35 36 36 36 37 38 39
32 32 32 32 33 33 31 31 30 29 29 29 28 27 27 26 26 25 23 23 25 27 29 29 29 29 28 26 27 25 25 26 28 29 30 31 32 33 34 35 36 36 37
35 36 36 35 35 35 34 33 31 30 30 29 29 28 27 26 25 24 24 23 23 25 27 27 27 28 27 26 26 25 25 25 26 27 29 30 31 32 34 34 34 34 34
40 40 39 38 38 38 37 35 33 32 31 30 29 28 27 26 25 24 23 23 22 23 25 25 26 27 26 26 25 25 25 25 25 26 27 28 29 31 30 30 32 32 32
46 45 44 42 41 39 38 37 35 33 32 31 30 29 28 27 25 24 23 22 22 22 23 24 25 26 26 26 25 25 25 25 25 26 26 26 27 27 28 28 29 29 30
54 52 49 47 45 42 40 39 37 35 34 33 31 30 28 27 25 24 22 22 21 21 21 22 24 26 26 26 26 26 26 25 25 25 24 24 25 26 26 27 27 26 27
59 57 55 53 50 47 44 42 39 37 35 33 32 30 28 27 26 24 22 21 21 20 21 22 23 25 26 26 26 26 26 26 25 24 24 24 23 24 24 24 25 25 25
64 62 60 57 54 52 49 45 42 40 37 35 33 31 29 27 25 24 22 21 20 20 20 21 23 24 25 26 26 26 26 25 25 23 23 23 22 22 23 23 24 24 24
70 68 66 63 59 55 51 49 46 42 40 37 35 32 29 27 26 24 22 21 20 19 20 20 22 24 25 26 26 25 25 24 24 23 22 22 22 22 22 22 22 23 23
75 74 72 69 65 61 56 53 50 46 43 39 37 35 31 28 26 24 22 21 20 20 19 20 21 22 23 23 23 24 24 24 24 23 22 21 20 20 20 20 19 19 19
71 73 75 74 71 67 63 59 55 51 47 43 38 36 33 30 27 25 23 22 21 20 19 19 21 21 22 22 23 24 24 23 23 23 21 19 18 18 17 15 15 15 15
55 62 67 70 72 72 69 64 60 56 51 46 42 37 34 31 28 26 24 23 21 20 18 19 20 21 22 22 22 23 23 22 22 20 19 17 17 16 14 14 13 13 14
42 46 53 59 64 67 70 68 64 59 53 49 45 41 36 33 29 27 24 23 21 20 19 19 20 20 22 23 22 22 22 22 21 20 18 16 15 15 14 13 13 13 13
37 38 39 45 52 57 62 66 65 60 55 51 47 42 38 34 30 28 26 24 21 20 19 19 19 21 23 23 22 22 21 19 18 17 17 15 14 14 13 12 12 12 12
36 35 34 35 39 45 52 57 60 59 55 51 47 43 39 35 32 29 27 25 22 20 19 18 18 19 20 20 20 19 17 15 16 16 15 13 12 12 11 11 10 10 10
Wind_Direction
288 286 284 283 283 282 281 281 282 283 283 282 284 284 282 283 277 276 275 273 272 271 271 271 269 264 260 258 257 256 254 255 258 259 254 250 248 248 251 254 257 258 259
290 289 287 288 287 286 286 286 286 286 287 288 288 286 284 284 284 280 275 271 268 268 267 269 268 266 262 259 256 255 254 254 255 255 255 251 248 248 251 253 256 258 259
289 287 286 285 286 285 284 285 287 287 288 288 287 286 284 282 281 281 278 274 271 269 269 269 268 265 263 261 258 255 253 253 253 253 252 250 249 249 251 253 254 256 257
287 285 284 283 283 283 284 286 288 290 290 289 288 286 284 283 281 279 276 274 274 272 269 269 267 264 262 262 258 256 253 252 253 251 250 250 249 248 249 251 252 254 256
285 282 279 279 280 281 284 287 290 293 294 294 292 289 286 284 281 278 276 274 272 271 269 268 267 265 262 260 259 257 256 252 250 251 250 249 249 248 249 250 251 253 255
280 275 274 274 277 281 285 289 294 297 299 299 297 294 290 286 282 278 275 273 270 269 268 267 266 265 261 258 256 256 256 255 252 251 250 249 249 249 250 250 251 252 253
272 269 269 272 276 280 285 290 294 298 301 302 302 300 296 290 284 278 273 270 267 266 265 265 264 262 259 257 255 255 256 256 254 252 250 250 250 251 250 251 252 252 252
264 262 265 271 275 280 284 288 293 298 301 304 305 304 300 295 288 281 273 268 265 265 264 265 263 260 259 257 256 255 254 255 254 252 252 251 251 252 252 252 252 252 252
261 262 266 270 275 279 283 286 290 295 300 304 307 308 305 299 291 284 277 269 264 261 261 263 261 260 260 257 255 254 254 255 255 254 253 253 253 254 253 253 253 253 252
261 263 266 270 275 280 283 285 289 294 299 303 307 308 309 305 297 287 278 271 265 260 258 259 262 263 260 257 258 256 255 256 256 255 255 255 255 256 255 254 254 254 253
262 264 268 271 275 279 284 286 290 294 298 302 304 306 308 308 304 295 282 272 265 260 256 257 260 262 261 259 260 260 258 257 257 257 257 257 257 257 257 255 256 255 254
267 265 268 271 274 278 281 284 288 292 295 299 303 305 307 307 305 299 290 276 266 261 257 256 257 261 262 262 261 260 258 258 258 259 258 257 257 257 258 257 257 257 256
271 269 269 271 274 277 278 280 284 288 291 295 299 302 305 307 304 300 294 282 270 263 259 258 258 260 263 263 262 261 260 260 261 260 259 259 259 260 260 259 259 258 258
271 271 271 272 273 275 276 277 279 283 287 290 294 298 302 304 303 301 296 287 276 266 260 258 257 259 259 260 261 262 262 263 264 263 262 261 261 262 262 259 257 257 258
270 270 270 271 271 272 273 275 276 278 281 285 288 293 297 301 301 300 297 291 282 271 263 259 256 256 257 258 259 262 264 264 266 265 264 263 263 263 261 258 257 258 258
270 268 267 267 267 268 269 270 272 273 276 279 283 287 291 296 299 299 297 294 287 276 266 259 254 253 253 256 258 259 263 265 265 265 265 265 263 260 259 258 259 260 260
268 266 265 264 265 266 266 265 266 267 270 273 277 282 286 290 294 297 297 293 287 279 268 260 254 251 251 253 257 259 264 265 264 264 263 263 263 260 259 260 260 261 261
267 266 264 263 262 264 264 262 260 261 264 267 272 276 280 285 289 293 295 293 287 280 271 262 256 253 251 253 257 261 264 263 263 262 260 261 261 261 260 259 260 261 262
266 265 263 262 261 261 261 260 258 257 258 261 265 270 275 280 285 289 292 292 287 280 271 263 259 256 254 255 257 261 262 261 260 259 260 261 262 261 261 262 261 261 261
264 263 262 261 260 259 258 257 257 255 253 256 260 265 270 276 282 285 288 289 287 280 273 265 260 257 255 254 257 258 258 256 258 259 260 262 263 263 263 262 261 262 262
261 261 261 260 258 256 255 254 255 253 251 252 256 260 265 271 278 282 284 285 284 279 273 266 260 257 255 254 253 254 254 254 258 259 260 263 264 264 263 260 260 261 261
261 259 258 257 256 255 254 252 253 251 249 249 253 256 260 265 272 277 281 282 281 278 273 268 260 258 255 251 251 252 252 254 255 256 256 259 260 259 257 255 256 257 260
265 261 258 256 254 252 252 250 251 249 247 246 248 251 255 261 267 273 276 276 277 277 272 267 260 257 251 248 250 249 248 250 252 253 253 253 253 252 252 251 252 253 256
271 267 262 256 253 251 249 248 247 245 243 243 245 247 251 257 262 268 270 272 272 273 270 265 259 255 250 245 245 247 249 249 247 247 248 247 249 250 249 250 252 254 257
273 271 268 260 253 249 247 245 243 240 239 240 240 241 247 253 258 263 266 266 267 268 266 262 259 256 252 246 245 245 244 242 240 241 244 243 242 244 246 246 251 255 258
271 271 269 264 256 248 243 240 237 235 234 236 236 238 243 250 255 259 261 262 263 263 259 255 252 247 245 242 242 239 237 237 238 240 238 236 234 235 240 243 246 251 256
Height
5866 5865 5865 5864 5863 5862 5862 5862 5861 5859 5859 5858 5857 5857 5857 5857 5857 5858 5859 5859 5860 5861 5862 5863 5864 5866 5868 5869 5870 5872 5873 5875 5876 5877 5878 5879 5881 5882 5884 5885 5886 5887 5888
5859 5858 5858 5857 5857 5856 5855 5854 5854 5853 5852 5851 5850 5850 5850 5850 5850 5850 5851 5851 5851 5852 5855 5856 5858 5859 5861 5863 5865 5866 5868 5870 5871 5873 5874 5875 5877 5878 5880 5881 5883 5884 5885
5853 5852 5851 5851 5850 5850 5849 5848 5847 5846 5846 5845 5844 5843 5843 5843 5843 5844 5843 5842 5843 5844 5847 5849 5851 5852 5854 5856 5858 5860 5862 5864 5866 5868 5870 5871 5873 5874 5876 5877 5879 5880 5881
5846 5845 5845 5844 5844 5844 5843 5842 5841 5840 5839 5838 5837 5836 5835 5835 5836 5836 5836 5837 5837 5838 5840 5841 5843 5845 5847 5848 5851 5853 5855 5858 5860 5862 5864 5866 5868 5870 5871 5873 5875 5876 5878
5840 5839 5839 5839 5838 5838 5837 5836 5835 5834 5833 5831 5830 5829 5828 5828 5828 5828 5828 5829 5829 5831 5832 5834 5836 5837 5839 5841 5843 5846 5848 5850 5853 5855 5858 5860 5862 5864 5866 5868 5870 5872 5873
5834 5833 5833 5833 5833 5832 5832 5830 5829 5828 5826 5824 5823 5822 5820 5820 5819 5820 5821 5821 5822 5823 5825 5826 5828 5830 5832 5834 5836 5838 5840 5843 5845 5848 5850 5853 5855 5858 5860 5862 5864 5866 5868
5828 5828 5828 5828 5828 5827 5826 5825 5824 5822 5821 5818 5816 5815 5813 5811 5811 5811 5812 5813 5814 5815 5816 5816 5818 5822 5823 5825 5827 5830 5832 5834 5837 5839 5842 5845 5848 5850 5853 5855 5858 5860 5862
5822 5822 5823 5823 5823 5822 5821 5820 5819 5817 5815 5812 5810 5808 5806 5805 5802 5802 5803 5804 5805 5807 5808 5808 5809 5812 5815 5817 5818 5821 5824 5826 5829 5831 5834 5836 5839 5842 5844 5847 5850 5852 5855
5816 5817 5817 5817 5817 5817 5816 5815 5813 5811 5810 5807 5803 5801 5799 5797 5795 5794 5794 5795 5797 5798 5800 5800 5801 5802 5805 5808 5811 5813 5816 5818 5820 5822 5825 5827 5830 5833 5836 5839 5841 5844 5847
5810 5811 5811 5811 5811 5811 5810 5809 5807 5805 5804 5801 5798 5794 5792 5789 5787 5787 5786 5786 5788 5789 5791 5793 5794 5796 5798 5799 5802 5805 5807 5810 5811 5813 5816 5819 5821 5824 5827 5829 5832 5835 5837
5804 5804 5805 5805 5804 5804 5803 5802 5801 5799 5797 5795 5793 5789 5786 5782 5779 5779 5779 5779 5779 5780 5782 5785 5787 5788 5790 5792 5794 5797 5799 5801 5803 5805 5808 5810 5812 5815 5817 5820 5823 5825 5828
5796 5797 5798 5798 5797 5797 5796 5795 5794 5792 5791 5789 5786 5783 5781 5777 5774 5772 5772 5772 5772 5772 5774 5776 5779 5780 5782 5785 5788 5790 5792 5793 5795 5798 5799 5801 5804 5806 5808 5811 5813 5816 5818
5788 5788 5789 5790 5789 5789 5789 5788 5787 5786 5784 5782 5780 5777 5775 5772 5768 5766 5765 5764 5765 5765 5766 5769 5771 5774 5776 5778 5781 5783 5784 5786 5788 5790 5792 5794 5796 5798 5800 5802 5804 5807 5809
5779 5779 5780 5780 5781 5781 5780 5780 5779 5778 5777 5775 5774 5771 5769 5766 5763 5760 5758 5758 5758 5758 5760 5762 5764 5766 5769 5772 5774 5775 5777 5779 5781 5782 5784 5786 5788 5790 5791 5794 5796 5798 5801
5768 5769 5769 5770 5771 5771 5771 5771 5771 5770 5769 5768 5767 5765 5763 5760 5757 5755 5753 5751 5751 5752 5753 5755 5757 5759 5762 5764 5767 5769 5771 5772 5774 5776 5777 5778 5780 5782 5783 5786 5788 5790 5792
5756 5757 5758 5759 5760 5761 5761 5762 5762 5762 5761 5761 5760 5758 5756 5754 5752 5749 5747 5745 5745 5745 5747 5749 5750 5752 5755 5757 5759 5762 5764 5766 5767 5768 5770 5771 5772 5774 5776 5778 5780 5782 5784
5740 5742 5744 5746 5747 5749 5750 5751 5752 5752 5753 5752 5752 5751 5750 5748 5746 5743 5741 5740 5739 5739 5740 5742 5743 5745 5747 5750 5752 5755 5757 5758 5760 5761 5763 5764 5766 5767 5769 5771 5773 5775 5777
5723 5726 5728 5731 5733 5736 5738 5739 5741 5742 5743 5743 5744 5743 5742 5741 5739 5737 5735 5734 5733 5733 5734 5735 5736 5738 5740 5743 5745 5747 5749 5751 5753 5754 5756 5758 5759 5761 5763 5765 5766 5768 5769
5704 5707 5711 5714 5718 5721 5724 5727 5729 5731 5733 5734 5734 5735 5734 5734 5732 5730 5729 5728 5727 5727 5728 5729 5730 5732 5734 5736 5738 5740 5742 5744 5746 5748 5750 5751 5753 5755 5756 5758 5760 5761 5762
5683 5686 5691 5695 5700 5705 5709 5713 5716 5719 5721 5723 5725 5726 5726 5726 5725 5724 5722 5721 5721 5721 5722 5723 5724 5726 5728 5730 5731 5733 5735 5738 5740 5742 5744 5745 5747 5748 5750 5751 5753 5754 5756
5660 5664 5669 5674 5680 5686 5692 5697 5701 5706 5710 5712 5714 5716 5717 5718 5717 5717 5716 5715 5715 5715 5716 5717 5718 5720 5721 5723 5725 5727 5729 5731 5733 5735 5738 5739 5741 5743 5744 5745 5747 5748 5749
5635 5639 5645 5651 5658 5665 5672 5679 5686 5691 5696 5700 5703 5706 5708 5709 5709 5709 5709 5708 5708 5709 5710 5711 5712 5714 5715 5717 5720 5722 5724 5725 5727 5730 5732 5734 5735 5737 5738 5740 5741 5742 5744
5612 5616 5620 5626 5634 5642 5650 5660 5668 5675 5681 5687 5691 5695 5698 5700 5701 5702 5702 5702 5702 5702 5704 5705 5706 5707 5709 5711 5713 5715 5718 5720 5722 5724 5726 5728 5730 5732 5734 5735 5736 5738 5739
5595 5596 5599 5604 5610 5618 5628 5638 5649 5658 5666 5673 5679 5683 5687 5691 5693 5694 5695 5696 5696 5697 5698 5699 5701 5702 5704 5706 5708 5710 5713 5715 5717 5719 5721 5724 5725 5727 5729 5731 5732 5734 5735
5581 5582 5582 5585 5590 5597 5606 5616 5628 5639 5649 5658 5665 5671 5677 5681 5684 5686 5688 5689 5690 5691 5692 5693 5695 5697 5699 5701 5703 5706 5708 5710 5712 5714 5717 5720 5721 5723 5725 5727 5728 5729 5731
5568 5569 5570 5571 5574 5579 5586 5596 5608 5621 5634 5644 5652 5660 5666 5671 5675 5678 5680 5682 5683 5685 5686 5688 5690 5693 5694 5697 5699 5702 5704 5707 5709 5711 5713 5716 5718 5720 5722 5723 5724 5725 5727